Flag for Burundi Weather past 2 weeks in Gitega, Burundi

Now
63 °F

Passing clouds.


Feels Like: 63 °F
Forecast: 59 / 71 °F
Wind: No wind

Location: Kigali Airport

Current Time: Dec 26, 2014 at 5:05:13 AM

Latest Report: Dec 26, 2014 at 4:00 AM


Visibility: N/A

Pressure: 30.15 "Hg

Humidity: 100%

Dew point: 63 °F

Location of GitegaLocation

Historic Weather in Gitega — Graph

°F

Gitega temperature yesterday

Maximum temperature yesterday: 75 °F (at 12:00 PM)
Minimum temperature yesterday: 63 °F (at 3:30 AM)
Average temperature yesterday: 67 °F

Past Weeks' High & Low Weather Summary

 TemperatureHumidityPressure
High86 °F (Dec 14, 2:00 PM)100% (Dec 11, 4:00 AM)30.39 "Hg (Dec 11, 4:00 AM)
Low59 °F (Dec 19, 5:00 AM)37% (Dec 20, 12:00 PM)30.01 "Hg (Dec 14, 3:30 PM)
Average70 °F81%30.12 "Hg
* Reported Dec 11 4:00 AM — Dec 26 4:00 AM, Gitega, Weather by CustomWeather, © 2014

Note: Actual official high and low records may vary slightly from our data, if they occured in-between our weather recording intervals... More about our weather records

Advertising

Gitega weather history for previous 24 hours

 ConditionsComfort  
Time TempWeatherWind HumidityBarometerVisibility
4:00 AM
Dec 26
63 °FPassing clouds.No wind100%30.15 "HgN/A
3:30 AM63 °FPassing clouds.No wind100%30.12 "HgN/A
3:00 AM63 °FPassing clouds.No wind100%30.15 "HgN/A
2:30 AM63 °FPassing clouds.No wind100%30.12 "HgN/A
2:00 AM63 °FPassing clouds.No wind100%30.15 "HgN/A
1:30 AM63 °FPassing clouds.No wind100%30.15 "HgN/A
1:00 AM63 °FPassing clouds.No wind100%30.15 "HgN/A
12:30 AM64 °FPassing clouds.No wind94%30.18 "HgN/A
12:00 AM64 °FPassing clouds.No wind100%30.18 "HgN/A
11:30 PM
Dec 25
64 °FPassing clouds.No wind100%30.18 "HgN/A
11:00 PM64 °FPassing clouds.No wind100%30.18 "HgN/A
10:30 PM64 °FPassing clouds.3 mph100%30.18 "HgN/A
10:00 PM64 °FPassing clouds.3 mph100%30.18 "HgN/A
9:30 PM64 °FPassing clouds.7 mph100%30.18 "HgN/A
9:00 PM64 °FPassing clouds.8 mph100%30.18 "HgN/A
8:30 PM64 °FPassing clouds.6 mph100%30.18 "HgN/A
8:00 PM66 °FPassing clouds.6 mph100%30.18 "Hg5 mi
7:30 PM66 °FPassing clouds.5 mph100%30.15 "Hg5 mi
7:00 PM66 °FPassing clouds.3 mph100%30.15 "Hg5 mi
6:30 PM66 °FPassing clouds.5 mph100%30.15 "Hg5 mi
5:30 PM70 °FScattered clouds.7 mph94%30.12 "HgN/A
5:00 PM70 °FScattered clouds.No wind88%30.12 "HgN/A
4:30 PM70 °FScattered clouds.7 mph88%30.12 "HgN/A
4:00 PM70 °FScattered clouds.7 mph88%30.12 "HgN/A
3:30 PM68 °FScattered clouds.6 mph100%30.12 "HgN/A
3:00 PM66 °FLight rain. Partly sunny.12 mph100%30.12 "HgN/A
2:30 PM66 °FLight rain. Partly sunny.14 mph100%30.12 "Hg5 mi
2:00 PM72 °FPartly sunny.15 mph88%30.15 "Hg5 mi
1:30 PM73 °FPartly sunny.9 mph74%30.15 "HgN/A
1:00 PM75 °FPartly sunny.3 mph74%30.15 "Hg6 mi
12:30 PM75 °FBroken clouds.3 mph69%30.15 "Hg5 mi
12:00 PM75 °FBroken clouds.No wind74%30.18 "Hg5 mi
11:30 AM73 °FBroken clouds.No wind83%30.18 "Hg4 mi
11:00 AM72 °FBroken clouds.No wind88%30.21 "Hg4 mi
10:30 AM72 °FBroken clouds.No wind88%30.21 "Hg4 mi
10:00 AM70 °FBroken clouds.No wind88%30.21 "Hg4 mi
9:30 AM68 °FBroken clouds.No wind100%30.21 "Hg3 mi
9:00 AM66 °FBroken clouds.No wind100%30.21 "Hg3 mi
8:30 AM66 °FBroken clouds.No wind100%30.21 "Hg3 mi
8:00 AM64 °FScattered clouds.No wind100%30.21 "Hg3 mi
7:30 AM64 °FScattered clouds.No wind100%30.18 "Hg3 mi
7:00 AM63 °FFog.No wind100%30.18 "Hg3 mi
6:30 AM63 °FFog.No wind100%30.18 "Hg3 mi
6:00 AM63 °FFog.No wind100%30.15 "Hg3 mi
5:30 AM63 °FPassing clouds.No wind100%30.15 "Hg5 mi
5:00 AM63 °FPassing clouds.No wind100%30.15 "Hg5 mi
Weather by CustomWeather, © 2014

See weather overviewHow to use our weather pages